Weather History for St. John's, Nfld, Newfoundland

Change the Weather History Date:

Thursday, August 7, 2003

  Actual Average Record
Temperature  
Mean Temperature 55 °F -  
Max Temperature 64 °F 65 °F - ()
Min Temperature 46 °F 51 °F - ()
Degree Days  
Heating Degree Days 10    
Growing Degree Days 5 (Base 50)    
Moisture  
Dew Point 51 °F    
Average Humidity 85    
Maximum Humidity 100    
Minimum Humidity 68    
Precipitation  
Precipitation 0.00 in 0.16 in - ()
Sea Level Pressure  
Sea Level Pressure 30.25 in    
Wind  
Wind Speed 3 mph ()    
Max Wind Speed 10 mph    
Max Gust Speed -    
Visibility 15.0 miles    
Events      
T = Trace of Precipitation, MM = Missing Value Source: Averaged Metar Reports

Daily Weather History Graph

Daily Weather History Graph

Search for Another Location

Airport:

Trip Planner

Search our weather history database for the weather conditions in past years. The results will help you decide how hot, cold, wet, or windy it might be!

Date:

Astronomy

Aug. 07, 2003 Rise Set
Actual Time 5:45 AM NDT 8:27 PM NDT
Civil Twilight 5:10 AM NDT 9:02 PM NDT
Nautical Twilight 4:25 AM NDT 9:46 PM NDT
Astronomical Twilight 3:32 AM NDT 10:38 PM NDT
Moon 5:07 PM NDT (8/7) 12:34 AM NDT (8/7)
Length of Visible Light 15h 51m
Length of Day
14h 41m
Waxing Gibbous, 75% of the Moon is Illuminated
Aug 7
Waxing Gibbous
Aug 12
Full
Aug 19
Last Quarter
Aug 27
New
Sep 3
First Quarter

Hourly Weather History & Observations

Time (NDT) Temp. Dew Point Humidity Pressure Visibility Wind Dir Wind Speed Gust Speed Precip Events Conditions
12:30 AM 46.4 °F 44.6 °F 93% 30.29 in 15.0 mi Calm Calm - N/A   Clear
1:30 AM 46.4 °F 46.4 °F 100% 30.27 in 15.0 mi South 2.3 mph - N/A   Partly Cloudy
2:30 AM 48.2 °F 46.4 °F 93% 30.27 in 15.0 mi SSW 3.5 mph - N/A   Partly Cloudy
3:30 AM 48.2 °F 46.4 °F 93% 30.26 in 15.0 mi SSW 2.3 mph - N/A   Mostly Cloudy
4:30 AM 46.4 °F 44.6 °F 93% 30.25 in 15.0 mi Calm Calm - N/A   Scattered Clouds
5:30 AM 51.8 °F 50.0 °F 94% 30.25 in 15.0 mi WSW 5.8 mph - N/A   Mostly Cloudy
6:30 AM 53.6 °F 50.0 °F 88% 30.26 in 15.0 mi West 6.9 mph - N/A   Mostly Cloudy
7:30 AM 53.6 °F 50.0 °F 88% 30.24 in 15.0 mi WSW 10.4 mph - N/A   Mostly Cloudy
8:30 AM 55.4 °F 51.8 °F 88% 30.25 in 15.0 mi West 6.9 mph - N/A   Mostly Cloudy
9:30 AM 59.0 °F 51.8 °F 77% 30.25 in 15.0 mi West 8.1 mph - N/A   Mostly Cloudy
10:30 AM 59.0 °F 51.8 °F 77% 30.25 in 15.0 mi WNW 4.6 mph - N/A   Mostly Cloudy
11:30 AM 60.8 °F 51.8 °F 72% 30.25 in 15.0 mi West 6.9 mph - N/A   Mostly Cloudy
12:30 PM 62.6 °F 51.8 °F 68% 30.25 in 15.0 mi West 5.8 mph - N/A   Mostly Cloudy
1:30 PM 62.6 °F 55.4 °F 77% 30.24 in 15.0 mi West 3.5 mph - N/A   Mostly Cloudy
2:30 PM 64.4 °F 53.6 °F 68% 30.24 in 15.0 mi North 2.3 mph - N/A   Mostly Cloudy
3:30 PM 60.8 °F 53.6 °F 77% 30.24 in 15.0 mi ENE 5.8 mph - N/A   Mostly Cloudy
4:30 PM 60.8 °F 53.6 °F 77% 30.24 in 15.0 mi NE 5.8 mph - N/A   Mostly Cloudy
5:30 PM 59.0 °F 53.6 °F 82% 30.24 in 15.0 mi NE 3.5 mph - N/A   Mostly Cloudy
6:30 PM 59.0 °F 51.8 °F 77% 30.25 in 15.0 mi NE 2.3 mph - N/A   Mostly Cloudy
7:30 PM 55.4 °F 51.8 °F 88% 30.25 in 15.0 mi East 3.5 mph - N/A   Mostly Cloudy
7:51 PM - - N/A% - 15.0 mi SE 3.5 mph - N/A   Mostly Cloudy
8:30 PM 55.4 °F 51.8 °F 88% 30.26 in 15.0 mi East 3.5 mph - N/A   Mostly Cloudy
8:57 PM - - N/A% - 15.0 mi ESE 2.3 mph - N/A   Overcast
9:30 PM 53.6 °F 51.8 °F 94% 30.27 in 15.0 mi SE 3.5 mph - N/A   Overcast
10:30 PM 53.6 °F 51.8 °F 94% 30.27 in 15.0 mi SSE 5.8 mph - N/A   Overcast
11:30 PM 53.6 °F 51.8 °F 94% 30.27 in 15.0 mi South 2.3 mph - N/A   Overcast